{"data":{"norad_id":57614,"epoch":"2026-05-24T23:14:11.495040Z","epoch_age_seconds":71042,"freshness":"FRESH","line1":"1 57614U 23119N   26144.96818860  .00000605  00000+0  31527-4 0  9994","line2":"2 57614  43.0035  10.6681 0001449 259.9356 100.1332 15.27571057154751","mean_motion":15.27571057,"eccentricity":0.0001449,"inclination_deg":43.0035,"raan_deg":10.6681,"arg_perigee_deg":259.9356,"mean_anomaly_deg":100.1332,"bstar":3.1527e-5,"rev_number":15475,"period_min":94.267300588165,"perigee_km":482.08168498398,"apogee_km":484.07006447507,"semimajor_km":6861.2128747295,"source":"CELESTRAK","updated_at":"2026-05-25T13:38:18.358424Z"}}